User: anonymous   Login
Location: Unspecified
(0.0000°N, 0.0000°E)
Time: 18:25:23
(UTC+00:00)
Language:

LES 1 - Orbit

View from above orbital plane
View from above orbital plane
View from above satellite
View from above satellite

Ground track
Ground track

The orbit data is extracted from the following two-line orbital elements,

1  1002U 65008C   17080.42066194 +.00000003 +00000-0 -67592-3 0  9996
2  1002 032.1414 119.4251 0014753 317.0743 042.8602 09.88352620882292
Epoch (UTC): 21 March 2017 10:05:45
Eccentricity: 0.0014753
inclination: 32.1414°
perigee height: 2780 km
apogee height: 2807 km
right ascension of ascending node: 119.4251°
argument of perigee: 317.0743°
revolutions per day: 9.88352620
mean anomaly at epoch: 42.8602°
orbit number at epoch: 88229

The dashed part of the orbit path shows where the satellite is in the earth's shadow,  

DLR